Probability
3 6 26 29 26 32 32 29 29 32 32 32 35 35 32 32 32 35 32 32 32 32 32 29 29 26 16 16 10 10 13 13 13 13 13 6 3 3 3 3 3 0 3
3 6 29 32 26 32 32 29 29 29 26 26 29 39 39 29 29 29 29 29 29 32 26 23 26 19 19 10 10 10 10 6 13 13 16 10 6 3 3 3 0 0 3
3 13 19 29 29 32 26 26 23 35 26 26 26 26 29 32 29 29 26 29 29 29 26 23 26 19 13 10 10 10 3 3 6 10 3 0 0 3 0 3 3 0 0
6 16 19 26 29 32 29 26 29 29 29 29 26 29 29 29 29 26 29 29 29 29 26 26 26 19 13 10 6 6 6 3 3 3 0 0 0 3 0 0 0 0 3
6 13 16 26 32 26 26 23 26 29 26 26 26 29 29 26 23 26 29 29 29 29 29 26 23 16 10 6 6 6 3 3 3 0 0 0 0 0 0 0 0 0 3
0 3 13 23 26 19 23 19 23 26 23 26 23 26 29 29 26 23 29 29 29 29 29 29 26 19 16 10 6 3 3 3 3 0 0 0 0 0 0 0 0 3 0
0 3 10 13 16 16 13 16 23 26 23 23 19 23 26 26 26 23 23 23 26 26 26 26 19 19 19 13 3 3 3 3 0 0 0 0 0 0 3 0 0 0 0
0 0 6 19 13 16 10 10 13 16 19 16 16 16 16 19 23 23 16 19 19 23 26 19 16 16 16 16 3 3 3 3 0 0 0 0 0 0 3 3 3 0 0
0 0 6 6 6 6 6 6 6 10 13 10 13 13 13 16 19 23 16 16 16 16 19 16 10 13 13 13 6 3 3 0 0 0 0 0 0 3 3 3 3 3 3
0 3 6 6 3 3 3 3 3 10 10 6 10 10 6 10 10 16 16 13 16 16 16 13 13 10 13 10 6 3 3 0 0 0 0 0 0 3 6 3 3 3 3
0 3 3 3 0 0 0 0 0 3 3 3 3 3 3 3 3 3 6 13 13 13 10 6 6 6 6 3 3 3 0 0 0 0 0 0 0 3 6 3 3 3 3
0 3 3 0 0 0 0 0 0 0 0 0 0 0 0 0 0 0 0 0 3 3 6 3 3 3 0 0 0 0 0 0 0 0 0 0 0 3 3 6 3 3 3
3 6 0 0 0 0 0 0 0 0 0 0 0 0 0 0 0 0 0 0 0 0 0 0 3 0 0 0 0 0 0 0 0 0 0 0 0 3 3 3 6 3 3
0 3 0 0 0 0 0 0 0 0 0 0 0 0 0 0 0 0 0 0 0 0 0 0 0 0 0 0 0 0 0 0 0 0 0 0 0 3 3 3 3 3 3
0 0 3 0 0 0 0 0 0 0 0 0 0 0 0 0 0 0 0 0 0 0 0 0 0 0 0 0 0 0 0 0 0 0 0 0 0 3 3 3 3 3 3
0 0 0 0 0 0 0 0 0 0 0 0 0 0 0 0 0 0 0 0 0 0 0 0 0 0 0 0 0 0 0 0 0 0 0 0 0 0 3 3 3 6 3
0 0 0 0 0 0 0 0 0 0 0 0 0 0 0 0 0 0 0 0 0 0 0 0 0 0 0 0 0 0 0 0 0 0 0 0 0 0 0 3 3 6 6
0 0 0 0 0 0 0 0 0 0 0 0 0 0 0 0 0 0 0 0 0 0 0 0 0 0 0 0 0 0 0 0 0 0 0 0 0 0 0 0 0 6 6
0 0 0 0 0 0 0 0 0 0 0 0 0 0 0 0 0 0 0 0 0 0 0 0 0 0 0 0 0 0 0 0 0 0 0 0 0 0 0 0 0 0 6
0 0 0 0 0 0 0 0 0 0 0 0 0 0 0 0 0 0 0 0 0 0 0 0 0 0 0 0 0 0 0 0 0 0 0 0 0 0 0 0 0 0 0
0 0 0 0 0 0 0 0 0 0 0 0 0 0 0 0 0 0 0 0 0 0 0 0 0 0 0 0 0 0 0 0 0 0 0 0 0 0 0 0 0 0 0
0 0 0 0 0 0 0 0 0 0 0 0 0 0 0 0 0 0 0 0 0 0 0 0 0 0 0 0 0 0 0 0 0 0 0 0 0 0 0 0 0 0 0
0 0 0 0 0 0 0 0 0 0 0 0 0 0 0 0 0 0 0 0 0 0 0 0 0 0 0 0 0 0 0 0 0 0 0 0 0 0 0 0 0 0 0
0 0 0 0 0 0 0 0 0 0 0 0 0 0 0 0 0 0 0 0 0 0 0 0 0 0 0 0 0 0 0 0 0 0 0 0 0 0 0 0 0 0 0
0 0 0 0 0 0 0 0 0 0 0 0 0 0 0 0 0 0 0 0 0 0 0 0 0 0 0 0 0 0 0 0 0 0 0 0 0 0 0 0 0 0 0
0 0 0 0 0 0 0 0 0 0 0 0 0 0 0 0 0 0 0 0 0 0 0 0 0 0 0 0 0 0 0 0 0 0 0 0 0 0 0 0 0 0 0
Height
5830 5831 5832 5833 5834 5835 5836 5837 5838 5839 5840 5840 5841 5842 5842 5843 5844 5845 5845 5846 5847 5847 5848 5848 5849 5849 5850 5850 5851 5852 5852 5852 5852 5853 5853 5853 5853 5853 5853 5853 5853 5853 5853
5827 5828 5829 5830 5831 5832 5833 5834 5835 5836 5837 5838 5839 5839 5840 5841 5841 5842 5843 5844 5844 5845 5845 5846 5847 5847 5848 5848 5849 5849 5850 5850 5850 5851 5851 5851 5851 5851 5851 5851 5851 5851 5851
5823 5824 5826 5827 5828 5829 5830 5831 5832 5833 5834 5835 5836 5837 5837 5838 5839 5839 5840 5841 5842 5842 5843 5843 5844 5844 5845 5846 5846 5847 5847 5848 5848 5848 5849 5849 5849 5849 5849 5849 5849 5849 5849
5819 5820 5822 5823 5824 5826 5827 5828 5829 5830 5831 5832 5833 5833 5834 5835 5836 5836 5837 5838 5839 5839 5840 5841 5841 5841 5842 5843 5843 5844 5844 5845 5845 5845 5846 5846 5846 5846 5846 5846 5846 5846 5846
5814 5816 5817 5819 5820 5822 5823 5824 5825 5826 5827 5828 5829 5830 5831 5831 5832 5833 5834 5834 5835 5836 5837 5837 5838 5838 5839 5839 5840 5840 5841 5841 5842 5842 5842 5843 5843 5843 5843 5843 5843 5843 5843
5809 5811 5812 5814 5816 5817 5818 5820 5821 5822 5823 5824 5825 5826 5827 5827 5828 5829 5830 5831 5831 5832 5833 5833 5834 5834 5835 5836 5836 5836 5837 5837 5838 5838 5839 5839 5839 5839 5839 5839 5839 5839 5839
5804 5806 5807 5809 5811 5812 5814 5815 5816 5818 5819 5820 5821 5821 5822 5823 5824 5825 5825 5826 5827 5828 5828 5829 5830 5830 5831 5831 5832 5832 5833 5833 5834 5834 5834 5834 5835 5835 5835 5835 5835 5835 5835
5798 5800 5802 5804 5805 5807 5809 5810 5812 5813 5814 5815 5816 5817 5817 5818 5819 5819 5821 5821 5822 5823 5823 5824 5825 5826 5826 5827 5827 5828 5828 5829 5829 5829 5830 5830 5830 5830 5830 5830 5830 5830 5830
5792 5794 5796 5798 5800 5801 5803 5805 5806 5807 5808 5809 5810 5811 5812 5813 5813 5814 5815 5816 5817 5818 5818 5819 5820 5821 5821 5822 5822 5823 5823 5824 5824 5824 5824 5825 5825 5825 5825 5825 5825 5825 5825
5786 5788 5790 5792 5794 5795 5797 5799 5800 5801 5803 5804 5805 5806 5806 5807 5808 5808 5809 5810 5811 5812 5813 5813 5814 5815 5816 5816 5817 5817 5818 5818 5819 5819 5819 5819 5819 5819 5819 5819 5819 5819 5819
5780 5782 5784 5785 5787 5789 5791 5792 5794 5795 5796 5797 5799 5800 5800 5801 5801 5802 5803 5803 5804 5805 5806 5807 5808 5809 5810 5810 5811 5811 5812 5812 5813 5813 5813 5813 5813 5813 5813 5813 5813 5813 5813
5773 5775 5777 5779 5781 5783 5784 5786 5787 5789 5790 5791 5792 5793 5794 5794 5795 5795 5796 5797 5797 5798 5800 5801 5801 5802 5803 5804 5805 5805 5805 5806 5806 5806 5806 5806 5806 5806 5806 5806 5806 5806 5806
5766 5768 5770 5772 5774 5776 5777 5779 5780 5782 5783 5784 5785 5786 5787 5787 5788 5789 5789 5790 5790 5791 5792 5793 5794 5795 5796 5797 5798 5798 5799 5799 5799 5800 5799 5799 5799 5799 5799 5799 5799 5799 5798
5759 5761 5763 5765 5767 5768 5770 5771 5773 5774 5776 5777 5778 5778 5779 5780 5781 5782 5782 5783 5783 5784 5785 5786 5787 5787 5788 5789 5790 5791 5791 5792 5792 5792 5792 5792 5792 5792 5792 5791 5791 5791 5790
5752 5754 5756 5757 5759 5761 5762 5764 5765 5766 5768 5769 5770 5771 5772 5773 5773 5774 5775 5775 5776 5776 5777 5778 5778 5779 5780 5781 5782 5783 5784 5784 5785 5785 5785 5785 5784 5784 5784 5783 5783 5783 5782
5745 5746 5748 5750 5751 5753 5754 5756 5757 5758 5760 5761 5762 5763 5764 5764 5765 5766 5766 5767 5767 5768 5769 5769 5770 5771 5772 5773 5774 5775 5775 5776 5776 5776 5776 5776 5776 5776 5775 5775 5775 5774 5774
5737 5738 5740 5742 5743 5745 5746 5747 5749 5750 5751 5753 5754 5755 5755 5756 5757 5757 5758 5758 5759 5759 5760 5760 5761 5762 5763 5764 5766 5766 5766 5767 5767 5767 5768 5768 5768 5767 5767 5766 5765 5765 5765
5728 5730 5731 5733 5735 5736 5738 5739 5740 5741 5742 5744 5745 5746 5746 5747 5748 5748 5749 5749 5750 5750 5751 5752 5752 5754 5755 5756 5756 5757 5757 5758 5758 5758 5758 5758 5758 5758 5757 5756 5756 5756 5755
5719 5721 5723 5724 5726 5727 5728 5730 5731 5732 5734 5735 5736 5737 5737 5738 5738 5739 5739 5740 5740 5741 5741 5742 5743 5744 5745 5746 5747 5748 5748 5748 5748 5748 5748 5748 5748 5748 5747 5747 5746 5746 5745
5710 5712 5714 5715 5716 5718 5719 5720 5722 5723 5724 5725 5726 5727 5728 5728 5728 5728 5729 5730 5730 5731 5732 5733 5734 5734 5735 5736 5737 5737 5738 5738 5738 5738 5738 5737 5737 5737 5736 5736 5736 5735 5735
5701 5702 5704 5706 5707 5708 5710 5711 5712 5713 5714 5715 5716 5717 5717 5718 5718 5718 5719 5719 5719 5720 5721 5722 5723 5724 5725 5726 5727 5727 5727 5727 5727 5727 5726 5726 5726 5725 5725 5725 5725 5724 5724
5691 5692 5694 5695 5697 5698 5700 5701 5702 5703 5704 5705 5706 5706 5707 5707 5707 5708 5708 5708 5709 5710 5710 5711 5712 5713 5714 5714 5715 5715 5716 5716 5716 5716 5715 5714 5714 5714 5713 5713 5712 5712 5711
5681 5682 5683 5685 5686 5687 5689 5690 5691 5692 5693 5694 5695 5695 5695 5696 5696 5697 5697 5697 5697 5698 5699 5700 5701 5702 5702 5702 5702 5703 5703 5704 5705 5705 5704 5703 5702 5701 5701 5700 5699 5699 5698
5670 5671 5673 5674 5675 5676 5678 5679 5680 5681 5682 5683 5683 5684 5684 5684 5685 5685 5686 5686 5686 5686 5687 5688 5689 5690 5690 5690 5690 5690 5691 5691 5691 5693 5692 5691 5689 5688 5688 5687 5686 5685 5684
5659 5661 5662 5663 5664 5665 5667 5667 5668 5669 5670 5671 5671 5672 5672 5673 5673 5673 5674 5674 5674 5675 5675 5676 5677 5678 5678 5678 5678 5678 5678 5678 5677 5678 5680 5679 5677 5676 5674 5673 5673 5671 5670
5649 5650 5651 5653 5654 5654 5655 5656 5657 5657 5658 5659 5659 5660 5660 5661 5661 5661 5661 5662 5662 5662 5663 5664 5664 5665 5665 5665 5665 5665 5665 5664 5664 5664 5665 5665 5665 5663 5661 5659 5658 5657 5655
Wind_Speed
18 18 18 17 16 16 15 15 14 13 12 11 11 11 11 11 11 11 11 11 11 11 11 11 11 11 11 11 10 10 10 10 10 10 9 9 8 8 9 9 9 9 9
20 19 19 19 18 17 16 16 15 15 15 14 13 12 12 12 12 13 13 13 12 13 13 13 13 13 12 12 12 11 11 11 11 11 11 10 10 10 10 10 10 10 11
21 21 21 20 20 19 18 17 16 16 16 16 15 14 14 14 14 14 15 14 14 14 14 14 15 15 14 14 14 14 13 13 13 13 12 12 12 12 12 12 12 12 12
23 23 23 23 22 21 21 19 19 18 18 17 17 16 16 15 16 16 16 16 16 16 16 16 16 17 16 16 16 16 15 15 15 15 14 14 14 14 14 14 14 14 15
25 24 24 24 24 23 23 22 21 21 20 20 19 19 18 18 17 17 17 18 18 18 18 18 18 18 18 18 18 18 17 17 17 17 17 17 17 17 16 16 16 16 16
26 26 26 26 25 25 24 24 23 23 22 22 21 21 21 20 20 20 19 19 19 19 20 20 20 20 20 19 19 19 19 19 19 19 19 19 19 18 18 18 18 18 18
28 28 27 27 27 27 26 25 25 25 24 24 23 23 23 23 22 22 22 21 21 22 22 21 21 21 21 21 21 20 20 20 20 20 21 21 21 21 21 21 21 20 20
30 30 30 29 29 29 28 28 27 27 26 26 25 25 24 24 24 24 24 24 24 24 23 23 23 23 23 22 22 22 22 22 22 22 22 23 23 23 23 23 23 23 23
32 32 31 31 30 30 30 29 29 29 28 28 28 27 26 26 26 26 27 26 26 26 26 25 25 25 25 25 24 24 24 24 24 24 24 25 25 25 25 25 25 25 25
33 33 33 32 31 31 31 31 30 30 30 30 29 29 28 28 28 28 29 29 28 28 28 28 28 27 27 27 27 27 26 26 26 26 27 27 27 27 28 27 27 27 27
34 34 34 34 33 33 33 32 32 32 32 31 31 30 30 30 30 30 30 31 31 30 30 30 29 29 29 29 29 29 28 27 28 28 28 28 28 28 29 29 29 29 30
35 35 35 35 35 35 34 34 34 33 33 33 33 33 32 32 31 31 31 31 32 32 32 32 32 31 31 31 31 31 30 29 29 29 29 29 29 30 30 31 31 31 31
35 35 36 36 36 35 35 35 35 35 34 34 34 33 33 33 32 32 32 32 32 32 33 33 33 33 33 33 33 33 32 31 32 32 32 31 31 31 31 32 32 33 33
36 36 36 36 37 36 36 36 36 36 36 35 34 34 34 34 34 34 34 34 34 34 34 34 34 34 34 34 35 35 34 34 33 34 34 33 33 33 34 34 34 34 34
36 37 38 38 38 38 38 37 37 37 37 36 36 36 35 35 35 36 35 35 35 35 35 36 36 36 36 36 36 36 36 36 36 36 36 36 36 36 36 36 36 36 36
38 38 39 39 38 38 38 38 38 37 37 37 37 37 37 37 37 37 37 37 37 37 37 38 37 37 38 38 37 37 38 38 39 38 38 38 37 38 38 38 38 38 38
39 39 39 40 39 39 39 39 39 39 39 39 39 39 39 39 39 39 38 38 38 38 38 38 38 38 38 38 38 38 39 39 40 40 40 39 39 39 39 39 39 39 39
40 40 41 41 41 41 41 40 40 40 40 40 40 40 41 41 41 40 40 39 39 39 39 39 39 39 39 40 40 40 41 41 41 41 41 41 41 41 41 41 40 41 41
41 41 41 42 42 41 41 41 41 41 41 41 42 42 42 42 42 41 41 41 41 41 40 41 40 40 40 41 42 42 43 43 43 43 43 42 42 42 42 43 43 43 43
42 42 42 42 42 42 41 42 42 42 42 43 43 43 43 43 43 43 42 43 43 43 42 42 42 42 42 42 43 43 44 44 45 45 44 44 44 44 44 44 44 44 44
42 43 42 42 42 42 42 42 42 42 43 43 44 44 44 44 44 44 45 44 45 45 44 44 44 44 44 44 45 45 45 46 46 46 46 46 46 45 45 46 46 46 46
43 43 43 43 43 43 43 43 43 44 44 44 45 45 46 46 46 46 47 47 46 46 46 46 46 45 44 45 46 47 47 47 47 47 48 48 48 47 48 48 48 48 49
44 44 44 44 44 44 44 44 45 45 45 46 46 46 46 46 47 47 46 47 47 47 46 47 46 46 46 46 47 48 48 47 47 47 48 49 49 49 49 49 50 51 52
44 44 45 45 45 45 45 46 47 46 46 47 47 47 47 47 47 47 47 47 47 48 47 47 47 47 48 48 48 49 49 49 49 48 48 49 49 49 49 49 50 51 52
43 43 43 44 45 45 45 46 47 47 47 47 47 47 47 47 47 48 48 49 49 49 49 48 48 48 49 49 49 50 50 51 51 51 49 49 49 50 51 51 52 52 52
40 42 43 44 44 45 45 46 47 47 47 47 48 48 48 48 48 49 50 50 50 50 50 50 50 50 51 51 52 51 51 52 52 52 51 50 49 50 51 51 52 52 53
Wind_Direction
252 253 251 251 254 256 256 258 259 261 263 265 265 263 260 261 263 262 263 265 268 268 268 267 267 269 268 269 270 273 271 270 272 273 272 270 267 266 266 267 268 268 266
253 253 251 251 253 254 255 257 258 260 263 264 264 262 260 261 263 262 263 265 267 267 268 266 266 269 268 268 268 271 271 269 269 271 272 273 269 269 269 268 268 267 267
253 252 251 252 253 253 253 255 257 258 261 262 263 263 261 261 262 263 263 264 265 265 266 266 266 267 267 267 267 268 270 268 267 269 272 273 272 269 270 270 269 268 268
252 252 252 252 252 252 253 255 257 259 261 263 263 263 261 263 263 262 263 264 265 266 266 265 265 265 266 267 267 268 269 269 268 269 271 272 272 271 270 270 269 269 270
252 253 253 252 252 254 255 256 258 259 261 263 265 265 263 263 264 263 263 264 266 266 265 265 265 266 266 267 267 268 269 269 269 269 270 270 271 272 271 271 271 271 272
253 253 253 253 252 254 255 255 257 260 261 263 265 266 265 264 263 262 262 263 265 266 266 266 266 266 266 267 267 268 268 269 269 269 270 270 270 271 272 272 272 272 273
253 253 252 252 253 253 254 255 257 258 260 263 264 265 266 265 265 264 263 263 265 265 266 266 266 266 266 267 267 268 268 270 269 269 269 270 270 270 272 272 271 272 273
253 253 252 252 253 253 254 255 256 258 260 262 263 264 265 266 265 264 264 264 264 265 265 265 265 265 266 266 267 268 268 270 269 269 269 270 270 270 271 272 271 272 272
252 252 252 252 252 253 255 255 256 258 260 262 263 264 265 265 265 264 264 264 264 264 264 264 263 264 265 266 267 268 269 270 270 270 271 270 269 269 270 271 271 272 272
252 251 252 252 252 253 255 256 257 258 259 261 262 263 263 264 265 266 265 264 264 264 264 264 263 264 266 267 267 268 269 270 271 272 272 272 271 271 270 270 271 272 273
252 251 251 251 252 253 254 256 258 259 259 260 261 263 264 264 265 265 265 264 264 263 263 264 264 264 266 267 267 268 268 270 272 273 273 273 273 272 272 272 272 273 273
252 251 250 251 252 253 255 257 258 259 260 260 261 262 263 264 264 264 264 264 264 263 263 263 263 264 265 266 267 268 269 269 270 272 273 273 273 274 274 274 273 274 276
253 252 252 252 253 254 255 257 257 258 260 261 261 262 263 263 264 265 264 263 263 263 263 264 264 264 264 265 266 267 268 270 271 271 272 272 273 274 275 275 275 276 276
253 253 252 252 254 255 256 257 258 259 260 260 260 261 262 263 264 265 265 264 264 263 263 263 263 264 264 265 266 267 269 270 272 273 272 273 273 274 275 277 277 277 277
253 253 254 254 255 256 257 257 258 259 260 260 261 261 262 263 264 265 264 264 264 264 263 263 263 262 263 265 266 267 268 270 272 273 274 274 274 275 276 277 278 277 277
254 254 255 256 256 257 256 257 258 259 260 261 261 262 262 263 264 265 265 265 265 266 265 265 263 263 264 265 266 268 269 270 271 272 274 274 274 275 276 276 276 276 276
254 255 255 256 257 257 258 259 259 259 260 261 262 263 263 264 264 265 265 265 265 266 266 265 264 264 264 265 266 267 269 271 272 272 273 273 274 274 275 276 276 275 274
255 255 255 256 257 258 259 260 260 260 260 261 262 263 264 264 264 264 265 265 265 265 266 265 265 265 266 266 266 266 268 270 271 272 273 273 273 273 274 274 274 274 274
255 255 256 256 257 258 259 260 260 260 261 262 263 263 264 265 264 264 264 264 264 265 265 265 265 265 267 267 267 267 268 270 271 272 273 274 274 273 273 273 273 274 274
255 256 256 256 257 258 259 260 260 260 261 262 263 263 264 264 264 264 264 264 265 264 264 264 264 265 267 267 268 269 269 270 271 273 274 274 274 274 273 272 273 273 274
255 256 256 257 257 258 259 260 260 261 262 263 263 263 264 264 264 264 265 265 265 265 265 264 264 266 268 268 269 270 270 270 272 273 274 274 274 273 273 272 272 273 273
257 257 257 258 258 259 260 261 261 262 262 264 264 264 264 264 264 265 265 266 265 265 264 263 264 266 267 268 269 270 271 272 272 273 273 273 273 273 273 272 272 272 273
257 258 259 259 260 260 260 261 262 262 263 264 265 265 264 265 265 265 264 264 265 265 263 264 264 265 266 268 270 271 272 272 271 272 272 273 273 273 272 273 272 273 274
258 258 259 259 261 261 261 261 262 263 264 265 265 265 265 265 264 265 264 264 264 265 265 263 264 265 266 268 269 270 271 272 272 271 272 272 272 272 272 273 273 274 274
258 258 259 260 261 262 262 263 263 264 265 265 264 264 264 265 265 265 265 264 264 264 264 264 264 265 266 267 269 271 271 272 272 272 271 271 272 273 273 273 274 274 273
259 260 260 261 262 262 263 263 264 265 265 265 264 264 264 265 266 266 266 265 264 264 264 265 265 266 267 268 269 270 271 273 273 273 272 272 272 273 274 274 275 274 274